Flag for India Weather past 2 weeks in Nãgpur, Maharashtra, India

Now
84 °F

Partly sunny.


Feels Like: 94 °F
Forecast: 78 / 93 °F
Wind: 3 mph from Southwest

Location: Nagpur Sonegaon

Current Time: Jun 30, 2015 at 9:39:21 AM

Latest Report: Jun 30, 2015 at 8:40 AM


Visibility: 2 mi

Pressure: 29.77 "Hg

Humidity: 79%

Dew point: 77 °F

Location of NãgpurLocation

Historic Weather in Nãgpur — Graph

°F

Nãgpur temperature yesterday

Maximum temperature yesterday: 97 °F (at 1:40 PM)
Minimum temperature yesterday: 79 °F (at 5:10 AM)
Average temperature yesterday: 87 °F

Past Weeks' High & Low Weather Summary

 TemperatureHumidityPressure
High108 °F (Jun 20, 1:10 PM)100% (Jun 16, 7:40 PM)29.80 "Hg (Jun 16, 7:40 PM)
Low73 °F (Jun 18, 10:40 PM)44% (Jun 28, 1:40 PM)29.39 "Hg (Jun 20, 4:40 PM)
Average85 °F78%29.60 "Hg
* Reported Jun 15 7:40 AM — Jun 30 8:10 AM, Nãgpur, Weather by CustomWeather, © 2015

Note: Actual official high and low records may vary slightly from our data, if they occured in-between our weather recording intervals... More about our weather records

Advertising

Nãgpur weather history for previous 24 hours

 ConditionsComfort  
Time TempWeatherWind HumidityBarometerVisibility
8:10 AM
Tue, Jun 30
82 °FPartly sunny.3 mph79%29.77 "Hg2 mi
7:40 AM81 °FPartly sunny.2 mph84%29.77 "Hg2 mi
7:10 AM81 °FBroken clouds.No wind79%29.77 "Hg2 mi
6:40 AM81 °FBroken clouds.No wind79%29.74 "Hg2 mi
6:10 AM81 °FBroken clouds.No wind84%29.74 "Hg2 mi
5:10 AM81 °FPartly cloudy.No wind79%29.74 "Hg2 mi
4:40 AM81 °FPartly cloudy.2 mph79%29.71 "Hg2 mi
4:10 AM81 °FPartly cloudy.3 mph84%29.71 "Hg2 mi
3:40 AM82 °FPartly cloudy.No wind74%29.71 "Hg2 mi
1:10 AM82 °FPassing clouds.No wind79%29.74 "Hg2 mi
10:10 PM
Mon, Jun 29
82 °FPassing clouds.No wind74%29.77 "Hg2 mi
9:10 PM84 °FPartly cloudy.6 mph70%29.74 "Hg2 mi
8:40 PM84 °FPartly cloudy.6 mph70%29.74 "Hg2 mi
8:10 PM86 °FPartly cloudy.5 mph70%29.74 "Hg2 mi
7:40 PM86 °FPartly cloudy.No wind70%29.71 "Hg2 mi
7:10 PM88 °FBroken clouds.5 mph66%29.71 "Hg2 mi
6:40 PM90 °FBroken clouds.No wind63%29.68 "Hg2 mi
6:10 PM88 °FBroken clouds.3 mph62%29.68 "Hg2 mi
5:40 PM88 °FBroken clouds.No wind59%29.68 "Hg2 mi
5:10 PM88 °FBroken clouds.8 mph59%29.68 "Hg2 mi
4:40 PM90 °FBroken clouds.2 mph63%29.68 "Hg2 mi
4:10 PM90 °FBroken clouds.5 mph59%29.68 "Hg2 mi
3:40 PM93 °FBroken clouds.6 mph53%29.68 "Hg2 mi
3:10 PM93 °FLight rain. Broken clouds.6 mph53%29.71 "Hg2 mi
2:10 PM97 °FScattered clouds.8 mph47%29.71 "Hg4 mi
1:40 PM97 °FScattered clouds.6 mph47%29.71 "Hg4 mi
1:10 PM95 °FScattered clouds.6 mph50%29.74 "Hg4 mi
12:40 PM95 °FScattered clouds.7 mph50%29.74 "Hg4 mi
12:10 PM93 °FScattered clouds.7 mph56%29.77 "Hg4 mi
11:40 AM91 °FScattered clouds.5 mph63%29.77 "Hg4 mi
11:10 AM91 °FScattered clouds.5 mph59%29.80 "Hg4 mi
10:40 AM91 °FScattered clouds.5 mph59%29.80 "Hg4 mi
9:40 AM90 °FScattered clouds.9 mph59%29.80 "Hg4 mi
9:10 AM88 °FScattered clouds.9 mph62%29.80 "Hg3 mi
Weather by CustomWeather, © 2015

See weather overviewHow to use our weather pages